Погода в Хвастовичах

Россия / Калужская область     53°28′10″N   35°05′41″E
темп.,
°C
ветер,
м/с
пор.,
м/с
влажн.,
%
обл.,
%
осадки,
мм/ч
давл.,
гПа
погр.,
м
11 апреля, вс
вс1100:00+3ююз34710 0.0 102764
03:00+2юз33760 0.0 102747
06:00+1ююз22780 0.0 102821
09:00+7ююз23580 0.0 1030261
12:00+12юз22430 0.0 1029884
15:00+14ю11380 0.0 10291283
18:00+13в11490 0.0 102925
21:00+7в22650 0.0 103020
12 апреля, пн
пн1200:00+6в33705 0.0 103137
03:00+4всв3475100 0.0 103161
06:00+3св31180100 0.0 1030198
09:00+8всв51252100 0.0 1029492
12:00+11в5764100 0.0 1027731
15:00+12в4568100 0.0 1026630
18:00+13всв2573100 0.0 1025248
21:00+9всв3792100 0.0 1024128
13 апреля, вт
вт1300:00+9всв259495 0.0 102384
03:00+8вюв2292100 0.0 102313
06:00+9юв2288100 0.0 102217
09:00+12вюв2776100 0.0 1022256
12:00+18юв575256 0.0 10211030
15:00+19ююв5947100 0.0 10201818
18:00+16юв3863100 0.1 1020265
21:00+12юв3477100 0.1 102065
14 апреля, ср
ср1400:00+10юв3877100 0.0 1020149
03:00+11ююв248285 0.0 102084
06:00+9юв248973 0.0 102071
09:00+13юв4971100 0.0 1020388
12:00+17вюв4654100 0.0 10181187
15:00+18юв574284 0.0 10171691
18:00+17юв245899 0.0 101695
21:00+13ююз1176100 0.3 101711
15 апреля, чт
чт1500:00+12св1179100 0.1 101710
03:00+10вюв2285100 0.1 101723
06:00+9в2285100 0.0 101621
09:00+12всв3471100 0.0 1016265
12:00+16св1149100 0.0 1015659
15:00+16св4652100 0.0 1013904
18:00+14ссв4860100 0.0 1012312
21:00+12ссв51468100 0.0 1012389